HINODE (SOLAR-B)

Last updated on Fri Sep 11 2026 00:03:31 GMT+0000 (Coordinated Universal Time)

1 29479U 06041A 26253.48363550 .00000383 00000+0 74105-4 0 9998 2 29479 98.0554 268.3842 0017916 21.8740 338.3226 14.68716846 67396
UTC large
Height (km)
Speed (km/s)
/
Latitude / Longitude
Inclination (degrees)
Orbital Period (minutes)
Azimuth
Elevation
Range (km)
Doppler Factor

Next 0 passes for location: London (51.5072 / 0.1276)

No passes found over London.
HINODE (SOLAR-B)